TimeEDT,TemperatureF,Dew PointF,Humidity,Sea Level PressureIn,VisibilityMPH,Wind Direction,Wind SpeedMPH,Gust SpeedMPH,PrecipitationIn,Events,Conditions,WindDirDegrees,DateUTC
12:54 AM,66.9,55.9,68,30.16,10.0,SE,4.6,-,N/A,,Scattered Clouds,140,2013-06-22 04:54:00
1:54 AM,66.0,55.9,70,30.16,10.0,SSE,5.8,-,N/A,,Scattered Clouds,150,2013-06-22 05:54:00
2:54 AM,64.9,55.9,73,30.13,10.0,SSE,5.8,-,N/A,,Scattered Clouds,150,2013-06-22 06:54:00
3:54 AM,64.9,55.0,70,30.12,10.0,SSE,5.8,-,N/A,,Scattered Clouds,150,2013-06-22 07:54:00
4:54 AM,64.9,55.0,70,30.11,10.0,SSE,5.8,-,N/A,,Scattered Clouds,150,2013-06-22 08:54:00
5:54 AM,64.9,55.0,70,30.10,10.0,SSE,6.9,-,N/A,,Scattered Clouds,160,2013-06-22 09:54:00
6:54 AM,66.9,55.9,68,30.11,10.0,SSE,5.8,-,N/A,,Mostly Cloudy,160,2013-06-22 10:54:00
7:54 AM,71.1,61.0,70,30.10,10.0,South,8.1,-,N/A,,Mostly Cloudy,170,2013-06-22 11:54:00
8:54 AM,75.9,62.1,62,30.12,10.0,SSW,10.4,-,N/A,,Mostly Cloudy,200,2013-06-22 12:54:00
9:54 AM,79.0,60.1,52,30.12,10.0,SSW,11.5,19.6,N/A,,Mostly Cloudy,210,2013-06-22 13:54:00
10:54 AM,82.0,62.1,51,30.10,10.0,SW,17.3,24.2,N/A,,Mostly Cloudy,220,2013-06-22 14:54:00
11:54 AM,82.9,63.0,51,30.10,10.0,SW,18.4,26.5,N/A,,Mostly Cloudy,220,2013-06-22 15:54:00
12:54 PM,81.0,64.0,56,30.10,10.0,SW,17.3,28.8,N/A,,Mostly Cloudy,230,2013-06-22 16:54:00
1:54 PM,82.9,64.0,53,30.07,10.0,SW,19.6,26.5,N/A,,Mostly Cloudy,230,2013-06-22 17:54:00
2:54 PM,82.9,62.1,49,30.07,10.0,SW,20.7,29.9,N/A,,Mostly Cloudy,220,2013-06-22 18:54:00
3:54 PM,84.0,64.9,53,30.05,10.0,SW,16.1,24.2,N/A,,Mostly Cloudy,230,2013-06-22 19:54:00
4:54 PM,82.9,64.9,54,30.03,10.0,SW,16.1,21.9,N/A,,Mostly Cloudy,230,2013-06-22 20:54:00
5:54 PM,82.0,66.0,58,30.02,10.0,SW,16.1,-,N/A,,Mostly Cloudy,230,2013-06-22 21:54:00
6:54 PM,80.1,66.9,64,30.01,10.0,SW,11.5,-,N/A,,Mostly Cloudy,230,2013-06-22 22:54:00
7:54 PM,79.0,66.0,64,30.02,10.0,WSW,10.4,-,N/A,,Mostly Cloudy,240,2013-06-22 23:54:00
8:54 PM,75.9,66.0,71,30.03,10.0,SSW,6.9,-,N/A,,Mostly Cloudy,200,2013-06-23 00:54:00
9:54 PM,73.9,66.0,76,30.04,9.0,SSW,6.9,-,N/A,,Scattered Clouds,200,2013-06-23 01:54:00
10:54 PM,73.9,66.9,79,30.04,9.0,SSW,5.8,-,N/A,,Mostly Cloudy,200,2013-06-23 02:54:00
11:54 PM,75.0,66.9,76,30.04,9.0,SSW,5.8,-,N/A,,Scattered Clouds,210,2013-06-23 03:54:00